Location: Béaulencourt
(50.0796°N, 2.8795°E)
Time: 04:51:12
(UTC+00:00)

ARIANE 6 FM1 Upper Stage - Pass Details

Date: 16 March 2026
Orbit: 525 x 604 km, 62.0° (Epoch: 17 April)

Event Time Altitude Azimuth Distance (km) Brightness Sun altitude
Exits shadow 04:22:47 33° 266° (W) 931 3.2 -16.3°
Maximum altitude 04:24:15 50° 322° (NW) 690 2.9 -16.1°
Drops below altitude 10° 04:28:10 10° 39° (NE) 1,786 6.1 -15.4°
Sets 04:30:24 0° 45° (NE) 2,673 7.2 -15.1°
